📊 Raw Sensor Data

Showing records 42651 to 42675 of 85,003 total

ID Distance (ft) Battery V Battery A Int Temp (°F) Int Humid (%) Ext Temp (°F) Solar V RSSI SNR Time Stamp
42365 15.1 4.00 0 91 41 87 5.20 -76 8 06/02/2025 01:00 PM
42364 15.1 4.00 0 89 42 86 5.20 -76 7 06/02/2025 12:45 PM
42363 15.1 4.00 0 86 43 82 5.10 -76 7 06/02/2025 12:30 PM
42362 15.1 4.00 0 85 43 79 5.10 -74 8 06/02/2025 12:15 PM
42361 15.1 4.00 0 84 43 83 5.10 -74 7 06/02/2025 12:00 PM
42360 15.2 4.00 0 83 42 83 5.10 -74 7 06/02/2025 11:45 AM
42359 15.2 4.00 5 81 42 85 5.10 -76 8 06/02/2025 11:15 AM
42358 15.2 4.11 5 80 42 84 5.10 -76 8 06/02/2025 11:00 AM
42357 15.2 4.00 0 78 41 82 5.10 -74 8 06/02/2025 10:45 AM
42356 15.2 4.12 5 77 42 79 5.10 -75 8 06/02/2025 10:30 AM
42355 15.2 4.00 5 75 42 74 5.10 -74 8 06/02/2025 10:15 AM
42354 15.2 4.00 5 74 42 76 5.10 -75 8 06/02/2025 10:00 AM
42353 15.2 4.01 5 73 42 78 5.10 -75 8 06/02/2025 09:45 AM
42352 15.2 4.00 5 71 42 77 5.10 -75 7 06/02/2025 09:30 AM
42351 15.2 4.00 5 69 43 68 5.10 -73 7 06/02/2025 09:15 AM
42350 15.2 4.00 0 68 43 68 5.10 -74 8 06/02/2025 09:00 AM
42349 15.2 4.00 5 67 43 71 5.10 -75 8 06/02/2025 08:45 AM
42348 15.2 4.05 5 66 42 67 5.10 -74 8 06/02/2025 08:30 AM
42347 15.2 4.00 0 64 42 66 5.10 -74 8 06/02/2025 08:15 AM
42346 15.2 4.00 0 62 42 65 5.10 -74 8 06/02/2025 08:00 AM
42345 15.2 4.18 61 61 42 63 4.50 -74 8 06/02/2025 07:45 AM
42344 15.2 4.06 53 60 42 62 4.50 -74 8 06/02/2025 07:30 AM
42343 15.2 4.01 18 59 41 63 4.50 -75 8 06/02/2025 07:15 AM
42342 15.1 3.97 15 57 41 60 4.60 -74 8 06/02/2025 07:00 AM
42341 15.1 3.98 -13 55 41 60 4.50 -74 8 06/02/2025 06:45 AM